<?xml version="1.0" encoding="UTF-8"?>
<gpx version="1.1" creator="https://www.youtrack.es" xsi:schemaLocation="http://www.topografix.com/GPX/1/1 http://www.topografix.com/GPX/1/1/gpx.xsd http://www.garmin.com/xmlschemas/GpxExtensions/v3 http://www.garmin.com/xmlschemas/GpxExtensionsv3.xsd http://www.garmin.com/xmlschemas/TrackPointExtension/v1 http://www.garmin.com/xmlschemas/TrackPointExtensionv1.xsd" xmlns:gpxtpx="http://www.garmin.com/xmlschemas/TrackPointExtension/v1" xmlns:gpxx="http://www.garmin.com/xmlschemas/GpxExtensions/v3" xmlns:xsi="http://www.w3.org/2001/XMLSchema-instance">
  <metadata>
    <author>
      <name>sergi 5hjh</name>
      <email id="sergipojo" domain="gmail.com"/>
    </author>
    <link href="https://www.youtrack.es">
      <text>YouTrack.es</text>
    </link>
    <time>2026-05-10T13:41:43Z</time>
  </metadata>
  <trk>
    <src>https://www.youtrack.es</src>
    <link href="https://www.youtrack.es/ruta/23291-anguita-luzaga-cortes-hortezuela-anguita">
      <text>YouTrack.es</text>
    </link>
    <trkseg>
      <trkpt lat="41.024976" lon="-2.370284">
        <ele>1076.233</ele>
        <time>1970-01-11T02:51:17Z</time>
      </trkpt>
      <trkpt lat="41.02566" lon="-2.371328"/>
      <trkpt lat="41.025542" lon="-2.37235"/>
      <trkpt lat="41.025678" lon="-2.373313">
        <ele>1076.808</ele>
        <time>1970-01-11T02:51:17Z</time>
      </trkpt>
      <trkpt lat="41.026026" lon="-2.374347">
        <ele>1076.454</ele>
        <time>1970-01-11T02:51:17Z</time>
      </trkpt>
      <trkpt lat="41.02581" lon="-2.37573"/>
      <trkpt lat="41.025858" lon="-2.37651"/>
      <trkpt lat="41.025177" lon="-2.378558">
        <ele>1072.819</ele>
        <time>1970-01-11T02:51:17Z</time>
      </trkpt>
      <trkpt lat="41.025042" lon="-2.380201">
        <ele>1070.467</ele>
        <time>1970-01-11T02:51:17Z</time>
      </trkpt>
      <trkpt lat="41.02414" lon="-2.384076"/>
      <trkpt lat="41.022961" lon="-2.390347">
        <ele>1063.867</ele>
        <time>1970-01-11T02:51:17Z</time>
      </trkpt>
      <trkpt lat="41.023012" lon="-2.391876">
        <ele>1062.645</ele>
        <time>1970-01-11T02:51:17Z</time>
      </trkpt>
      <trkpt lat="41.019695" lon="-2.394264">
        <ele>1060.889</ele>
        <time>1970-01-11T02:51:17Z</time>
      </trkpt>
      <trkpt lat="41.017599" lon="-2.395985">
        <ele>1060.606</ele>
        <time>1970-01-11T02:51:17Z</time>
      </trkpt>
      <trkpt lat="41.016331" lon="-2.397133">
        <ele>1059.226</ele>
        <time>1970-01-11T02:51:17Z</time>
      </trkpt>
      <trkpt lat="41.016165" lon="-2.397689">
        <ele>1059.608</ele>
        <time>1970-01-11T02:51:17Z</time>
      </trkpt>
      <trkpt lat="41.01595" lon="-2.397902"/>
      <trkpt lat="41.015637" lon="-2.397901">
        <ele>1062.056</ele>
        <time>1970-01-11T02:51:17Z</time>
      </trkpt>
      <trkpt lat="41.012739" lon="-2.396362">
        <ele>1060.897</ele>
        <time>1970-01-11T02:51:17Z</time>
      </trkpt>
      <trkpt lat="41.012349" lon="-2.39648"/>
      <trkpt lat="41.012024" lon="-2.396986">
        <ele>1058.272</ele>
        <time>1970-01-11T02:51:17Z</time>
      </trkpt>
      <trkpt lat="41.011969" lon="-2.397421">
        <ele>1058.075</ele>
        <time>1970-01-11T02:51:17Z</time>
      </trkpt>
      <trkpt lat="41.01229" lon="-2.400065"/>
      <trkpt lat="41.012156" lon="-2.400272">
        <ele>1058.410</ele>
        <time>1970-01-11T02:51:17Z</time>
      </trkpt>
      <trkpt lat="41.011283" lon="-2.400661">
        <ele>1057.643</ele>
        <time>1970-01-11T02:51:17Z</time>
      </trkpt>
      <trkpt lat="41.010937" lon="-2.401766">
        <ele>1058.864</ele>
        <time>1970-01-11T02:51:17Z</time>
      </trkpt>
      <trkpt lat="41.008787" lon="-2.403741">
        <ele>1056.410</ele>
        <time>1970-01-11T02:51:17Z</time>
      </trkpt>
      <trkpt lat="41.008581" lon="-2.404262">
        <ele>1057.208</ele>
        <time>1970-01-11T02:51:17Z</time>
      </trkpt>
      <trkpt lat="41.008359" lon="-2.405835">
        <ele>1058.225</ele>
        <time>1970-01-11T02:51:17Z</time>
      </trkpt>
      <trkpt lat="41.007038" lon="-2.407503">
        <ele>1056.212</ele>
        <time>1970-01-11T02:51:17Z</time>
      </trkpt>
      <trkpt lat="41.005612" lon="-2.407394">
        <ele>1055.653</ele>
        <time>1970-01-11T02:51:17Z</time>
      </trkpt>
      <trkpt lat="41.004766" lon="-2.407524">
        <ele>1055.010</ele>
        <time>1970-01-11T02:51:17Z</time>
      </trkpt>
      <trkpt lat="41.004407" lon="-2.407769">
        <ele>1054.228</ele>
        <time>1970-01-11T02:51:17Z</time>
      </trkpt>
      <trkpt lat="41.003703" lon="-2.409013">
        <ele>1054.221</ele>
        <time>1970-01-11T02:51:17Z</time>
      </trkpt>
      <trkpt lat="41.003095" lon="-2.410748">
        <ele>1052.428</ele>
        <time>1970-01-11T02:51:17Z</time>
      </trkpt>
      <trkpt lat="41.002975" lon="-2.415509">
        <ele>1051.616</ele>
        <time>1970-01-11T02:51:17Z</time>
      </trkpt>
      <trkpt lat="41.002556" lon="-2.416107">
        <ele>1051.066</ele>
        <time>1970-01-11T02:51:17Z</time>
      </trkpt>
      <trkpt lat="41.00066" lon="-2.418045"/>
      <trkpt lat="40.999639" lon="-2.420535">
        <ele>1048.021</ele>
        <time>1970-01-11T02:51:17Z</time>
      </trkpt>
      <trkpt lat="40.999129" lon="-2.42329"/>
      <trkpt lat="40.99971" lon="-2.427187"/>
      <trkpt lat="40.999482" lon="-2.429397">
        <ele>1046.224</ele>
        <time>1970-01-11T02:51:18Z</time>
      </trkpt>
      <trkpt lat="40.999576" lon="-2.431123">
        <ele>1046.295</ele>
        <time>1970-01-11T02:51:18Z</time>
      </trkpt>
      <trkpt lat="40.9988" lon="-2.432438"/>
      <trkpt lat="40.99771" lon="-2.433621"/>
      <trkpt lat="40.996828" lon="-2.435196">
        <ele>1045.883</ele>
        <time>1970-01-11T02:51:18Z</time>
      </trkpt>
      <trkpt lat="40.996526" lon="-2.435364">
        <ele>1046.020</ele>
        <time>1970-01-11T02:51:18Z</time>
      </trkpt>
      <trkpt lat="40.995899" lon="-2.434985">
        <ele>1044.898</ele>
        <time>1970-01-11T02:51:18Z</time>
      </trkpt>
      <trkpt lat="40.995468" lon="-2.434956">
        <ele>1044.222</ele>
        <time>1970-01-11T02:51:18Z</time>
      </trkpt>
      <trkpt lat="40.994677" lon="-2.434292">
        <ele>1044.062</ele>
        <time>1970-01-11T02:51:18Z</time>
      </trkpt>
      <trkpt lat="40.994344" lon="-2.434306">
        <ele>1043.808</ele>
        <time>1970-01-11T02:51:18Z</time>
      </trkpt>
      <trkpt lat="40.99187" lon="-2.435982"/>
      <trkpt lat="40.990903" lon="-2.436247">
        <ele>1043.473</ele>
        <time>1970-01-11T02:51:18Z</time>
      </trkpt>
      <trkpt lat="40.989888" lon="-2.436129">
        <ele>1044.840</ele>
        <time>1970-01-11T02:51:18Z</time>
      </trkpt>
      <trkpt lat="40.989177" lon="-2.437039">
        <ele>1044.271</ele>
        <time>1970-01-11T02:51:18Z</time>
      </trkpt>
      <trkpt lat="40.988127" lon="-2.437437">
        <ele>1042.028</ele>
        <time>1970-01-11T02:51:18Z</time>
      </trkpt>
      <trkpt lat="40.986209" lon="-2.43861"/>
      <trkpt lat="40.984563" lon="-2.438779">
        <ele>1045.899</ele>
        <time>1970-01-11T02:51:18Z</time>
      </trkpt>
      <trkpt lat="40.981748" lon="-2.43952"/>
      <trkpt lat="40.980057" lon="-2.440735">
        <ele>1040.414</ele>
        <time>1970-01-11T02:51:18Z</time>
      </trkpt>
      <trkpt lat="40.979076" lon="-2.441218">
        <ele>1039.063</ele>
        <time>1970-01-11T02:51:18Z</time>
      </trkpt>
      <trkpt lat="40.978207" lon="-2.441982">
        <ele>1043.844</ele>
        <time>1970-01-11T02:51:18Z</time>
      </trkpt>
      <trkpt lat="40.977432" lon="-2.442305">
        <ele>1039.618</ele>
        <time>1970-01-11T02:51:18Z</time>
      </trkpt>
      <trkpt lat="40.976677" lon="-2.443126">
        <ele>1038.008</ele>
        <time>1970-01-11T02:51:18Z</time>
      </trkpt>
      <trkpt lat="40.97517" lon="-2.44563"/>
      <trkpt lat="40.974109" lon="-2.446462">
        <ele>1041.614</ele>
        <time>1970-01-11T02:51:18Z</time>
      </trkpt>
      <trkpt lat="40.973601" lon="-2.446339">
        <ele>1037.615</ele>
        <time>1970-01-11T02:51:18Z</time>
      </trkpt>
      <trkpt lat="40.973375" lon="-2.44651"/>
      <trkpt lat="40.974575" lon="-2.448311">
        <ele>1037.890</ele>
        <time>1970-01-11T02:51:18Z</time>
      </trkpt>
      <trkpt lat="40.974588" lon="-2.448799">
        <ele>1036.853</ele>
        <time>1970-01-11T02:51:18Z</time>
      </trkpt>
      <trkpt lat="40.974253" lon="-2.449938">
        <ele>1036.410</ele>
        <time>1970-01-11T02:51:18Z</time>
      </trkpt>
      <trkpt lat="40.974026" lon="-2.449987">
        <ele>1036.058</ele>
        <time>1970-01-11T02:51:18Z</time>
      </trkpt>
      <trkpt lat="40.973073" lon="-2.449521">
        <ele>1035.611</ele>
        <time>1970-01-11T02:51:18Z</time>
      </trkpt>
      <trkpt lat="40.972749" lon="-2.449534">
        <ele>1034.821</ele>
        <time>1970-01-11T02:51:18Z</time>
      </trkpt>
      <trkpt lat="40.969689" lon="-2.451536">
        <ele>1033.803</ele>
        <time>1970-01-11T02:51:18Z</time>
      </trkpt>
      <trkpt lat="40.968547" lon="-2.45164"/>
      <trkpt lat="40.967755" lon="-2.451908">
        <ele>1033.012</ele>
        <time>1970-01-11T02:51:18Z</time>
      </trkpt>
      <trkpt lat="40.966372" lon="-2.452954">
        <ele>1034.279</ele>
        <time>1970-01-11T02:51:18Z</time>
      </trkpt>
      <trkpt lat="40.96599" lon="-2.453433"/>
      <trkpt lat="40.965525" lon="-2.454665">
        <ele>1036.227</ele>
        <time>1970-01-11T02:51:18Z</time>
      </trkpt>
      <trkpt lat="40.964565" lon="-2.455736">
        <ele>1041.285</ele>
        <time>1970-01-11T02:51:18Z</time>
      </trkpt>
      <trkpt lat="40.961521" lon="-2.457819">
        <ele>1042.818</ele>
        <time>1970-01-11T02:51:18Z</time>
      </trkpt>
      <trkpt lat="40.959782" lon="-2.459662">
        <ele>1038.065</ele>
        <time>1970-01-11T02:51:18Z</time>
      </trkpt>
      <trkpt lat="40.959156" lon="-2.460537">
        <ele>1036.253</ele>
        <time>1970-01-11T02:51:18Z</time>
      </trkpt>
      <trkpt lat="40.95803" lon="-2.463014"/>
      <trkpt lat="40.957656" lon="-2.463272">
        <ele>1031.444</ele>
        <time>1970-01-11T02:51:18Z</time>
      </trkpt>
      <trkpt lat="40.956884" lon="-2.463462">
        <ele>1032.018</ele>
        <time>1970-01-11T02:51:18Z</time>
      </trkpt>
      <trkpt lat="40.956848" lon="-2.463724">
        <ele>1032.608</ele>
        <time>1970-01-11T02:51:18Z</time>
      </trkpt>
      <trkpt lat="40.957426" lon="-2.464994">
        <ele>1028.887</ele>
        <time>1970-01-11T02:51:18Z</time>
      </trkpt>
      <trkpt lat="40.957465" lon="-2.465461">
        <ele>1028.884</ele>
        <time>1970-01-11T02:51:18Z</time>
      </trkpt>
      <trkpt lat="40.957304" lon="-2.465717">
        <ele>1029.015</ele>
        <time>1970-01-11T02:51:18Z</time>
      </trkpt>
      <trkpt lat="40.956483" lon="-2.466282">
        <ele>1026.652</ele>
        <time>1970-01-11T02:51:18Z</time>
      </trkpt>
      <trkpt lat="40.955808" lon="-2.467316">
        <ele>1026.830</ele>
        <time>1970-01-11T02:51:18Z</time>
      </trkpt>
      <trkpt lat="40.955039" lon="-2.469062">
        <ele>1026.433</ele>
        <time>1970-01-11T02:51:18Z</time>
      </trkpt>
      <trkpt lat="40.95456" lon="-2.470971"/>
      <trkpt lat="40.953842" lon="-2.472667">
        <ele>1029.098</ele>
        <time>1970-01-11T02:51:18Z</time>
      </trkpt>
      <trkpt lat="40.953293" lon="-2.472812">
        <ele>1028.097</ele>
        <time>1970-01-11T02:51:18Z</time>
      </trkpt>
      <trkpt lat="40.952617" lon="-2.472466">
        <ele>1024.823</ele>
        <time>1970-01-11T02:51:18Z</time>
      </trkpt>
      <trkpt lat="40.952289" lon="-2.471944">
        <ele>1024.625</ele>
        <time>1970-01-11T02:51:18Z</time>
      </trkpt>
      <trkpt lat="40.952136" lon="-2.471315">
        <ele>1024.408</ele>
        <time>1970-01-11T02:51:19Z</time>
      </trkpt>
      <trkpt lat="40.951643" lon="-2.470648">
        <ele>1024.220</ele>
        <time>1970-01-11T02:51:19Z</time>
      </trkpt>
      <trkpt lat="40.951268" lon="-2.470528">
        <ele>1023.897</ele>
        <time>1970-01-11T02:51:19Z</time>
      </trkpt>
      <trkpt lat="40.951079" lon="-2.47081"/>
      <trkpt lat="40.950944" lon="-2.471727">
        <ele>1023.835</ele>
        <time>1970-01-11T02:51:19Z</time>
      </trkpt>
      <trkpt lat="40.951311" lon="-2.474357">
        <ele>1023.673</ele>
        <time>1970-01-11T02:51:19Z</time>
      </trkpt>
      <trkpt lat="40.950735" lon="-2.47542"/>
      <trkpt lat="40.950121" lon="-2.475564">
        <ele>1023.293</ele>
        <time>1970-01-11T02:51:19Z</time>
      </trkpt>
      <trkpt lat="40.947737" lon="-2.47551"/>
      <trkpt lat="40.946494" lon="-2.475203">
        <ele>1022.876</ele>
        <time>1970-01-11T02:51:19Z</time>
      </trkpt>
      <trkpt lat="40.945087" lon="-2.474325">
        <ele>1022.890</ele>
        <time>1970-01-11T02:51:19Z</time>
      </trkpt>
      <trkpt lat="40.944536" lon="-2.474283">
        <ele>1022.819</ele>
        <time>1970-01-11T02:51:19Z</time>
      </trkpt>
      <trkpt lat="40.944168" lon="-2.4745"/>
      <trkpt lat="40.943996" lon="-2.474887">
        <ele>1022.088</ele>
        <time>1970-01-11T02:51:19Z</time>
      </trkpt>
      <trkpt lat="40.943778" lon="-2.477007">
        <ele>1021.085</ele>
        <time>1970-01-11T02:51:19Z</time>
      </trkpt>
      <trkpt lat="40.943298" lon="-2.477427">
        <ele>1020.416</ele>
        <time>1970-01-11T02:51:19Z</time>
      </trkpt>
      <trkpt lat="40.942759" lon="-2.477123">
        <ele>1021.463</ele>
        <time>1970-01-11T02:51:19Z</time>
      </trkpt>
      <trkpt lat="40.942937" lon="-2.475537">
        <ele>1022.881</ele>
        <time>1970-01-11T02:51:19Z</time>
      </trkpt>
      <trkpt lat="40.942693" lon="-2.474541">
        <ele>1022.824</ele>
        <time>1970-01-11T02:51:19Z</time>
      </trkpt>
      <trkpt lat="40.942887" lon="-2.473794">
        <ele>1023.061</ele>
        <time>1970-01-11T02:51:19Z</time>
      </trkpt>
      <trkpt lat="40.943312" lon="-2.473349">
        <ele>1023.039</ele>
        <time>1970-01-11T02:51:19Z</time>
      </trkpt>
      <trkpt lat="40.944486" lon="-2.473085">
        <ele>1022.081</ele>
        <time>1970-01-11T02:51:19Z</time>
      </trkpt>
      <trkpt lat="40.945119" lon="-2.472738">
        <ele>1025.861</ele>
        <time>1970-01-11T02:51:19Z</time>
      </trkpt>
      <trkpt lat="40.944568" lon="-2.47304"/>
      <trkpt lat="40.944673" lon="-2.472545">
        <ele>1025.208</ele>
        <time>1970-01-11T02:51:19Z</time>
      </trkpt>
      <trkpt lat="40.944425" lon="-2.471442">
        <ele>1029.219</ele>
        <time>1970-01-11T02:51:19Z</time>
      </trkpt>
      <trkpt lat="40.944257" lon="-2.471198">
        <ele>1030.216</ele>
        <time>1970-01-11T02:51:19Z</time>
      </trkpt>
      <trkpt lat="40.943729" lon="-2.470957">
        <ele>1033.827</ele>
        <time>1970-01-11T02:51:19Z</time>
      </trkpt>
      <trkpt lat="40.943664" lon="-2.470758">
        <ele>1034.424</ele>
        <time>1970-01-11T02:51:19Z</time>
      </trkpt>
      <trkpt lat="40.944297" lon="-2.469894">
        <ele>1037.092</ele>
        <time>1970-01-11T02:51:19Z</time>
      </trkpt>
      <trkpt lat="40.944815" lon="-2.468589">
        <ele>1043.235</ele>
        <time>1970-01-11T02:51:19Z</time>
      </trkpt>
      <trkpt lat="40.945218" lon="-2.468008">
        <ele>1044.452</ele>
        <time>1970-01-11T02:51:19Z</time>
      </trkpt>
      <trkpt lat="40.945194" lon="-2.466674">
        <ele>1048.050</ele>
        <time>1970-01-11T02:51:19Z</time>
      </trkpt>
      <trkpt lat="40.945045" lon="-2.4661"/>
      <trkpt lat="40.945769" lon="-2.46548"/>
      <trkpt lat="40.945492" lon="-2.465291">
        <ele>1055.422</ele>
        <time>1970-01-11T02:51:19Z</time>
      </trkpt>
      <trkpt lat="40.944878" lon="-2.465328">
        <ele>1058.608</ele>
        <time>1970-01-11T02:51:19Z</time>
      </trkpt>
      <trkpt lat="40.944646" lon="-2.46514"/>
      <trkpt lat="40.944322" lon="-2.463014">
        <ele>1064.237</ele>
        <time>1970-01-11T02:51:19Z</time>
      </trkpt>
      <trkpt lat="40.943743" lon="-2.462437">
        <ele>1066.868</ele>
        <time>1970-01-11T02:51:19Z</time>
      </trkpt>
      <trkpt lat="40.943447" lon="-2.461856">
        <ele>1069.015</ele>
        <time>1970-01-11T02:51:19Z</time>
      </trkpt>
      <trkpt lat="40.943616" lon="-2.460732">
        <ele>1071.083</ele>
        <time>1970-01-11T02:51:19Z</time>
      </trkpt>
      <trkpt lat="40.942863" lon="-2.459865">
        <ele>1073.636</ele>
        <time>1970-01-11T02:51:19Z</time>
      </trkpt>
      <trkpt lat="40.942626" lon="-2.458074">
        <ele>1076.833</ele>
        <time>1970-01-11T02:51:19Z</time>
      </trkpt>
      <trkpt lat="40.941676" lon="-2.45609"/>
      <trkpt lat="40.941256" lon="-2.455927">
        <ele>1086.818</ele>
        <time>1970-01-11T02:51:19Z</time>
      </trkpt>
      <trkpt lat="40.940745" lon="-2.455341">
        <ele>1086.498</ele>
        <time>1970-01-11T02:51:19Z</time>
      </trkpt>
      <trkpt lat="40.940528" lon="-2.454618">
        <ele>1088.017</ele>
        <time>1970-01-11T02:51:19Z</time>
      </trkpt>
      <trkpt lat="40.940946" lon="-2.450118">
        <ele>1096.408</ele>
        <time>1970-01-11T02:51:19Z</time>
      </trkpt>
      <trkpt lat="40.941918" lon="-2.445786">
        <ele>1106.282</ele>
        <time>1970-01-11T02:51:20Z</time>
      </trkpt>
      <trkpt lat="40.942385" lon="-2.444892">
        <ele>1108.649</ele>
        <time>1970-01-11T02:51:20Z</time>
      </trkpt>
      <trkpt lat="40.942379" lon="-2.44394"/>
      <trkpt lat="40.942786" lon="-2.442327">
        <ele>1115.887</ele>
        <time>1970-01-11T02:51:20Z</time>
      </trkpt>
      <trkpt lat="40.94312" lon="-2.441205"/>
      <trkpt lat="40.943741" lon="-2.440493">
        <ele>1123.258</ele>
        <time>1970-01-11T02:51:20Z</time>
      </trkpt>
      <trkpt lat="40.94436" lon="-2.439358"/>
      <trkpt lat="40.944635" lon="-2.439239">
        <ele>1128.843</ele>
        <time>1970-01-11T02:51:20Z</time>
      </trkpt>
      <trkpt lat="40.944662" lon="-2.439053">
        <ele>1129.258</ele>
        <time>1970-01-11T02:51:20Z</time>
      </trkpt>
      <trkpt lat="40.944682" lon="-2.439299">
        <ele>1128.852</ele>
        <time>1970-01-11T02:51:20Z</time>
      </trkpt>
      <trkpt lat="40.945232" lon="-2.439427">
        <ele>1130.817</ele>
        <time>1970-01-11T02:51:20Z</time>
      </trkpt>
      <trkpt lat="40.944525" lon="-2.439198">
        <ele>1129.008</ele>
        <time>1970-01-11T02:51:20Z</time>
      </trkpt>
      <trkpt lat="40.945728" lon="-2.43699"/>
      <trkpt lat="40.945567" lon="-2.435178">
        <ele>1107.873</ele>
        <time>1970-01-11T02:51:20Z</time>
      </trkpt>
      <trkpt lat="40.944972" lon="-2.434158">
        <ele>1098.444</ele>
        <time>1970-01-11T02:51:20Z</time>
      </trkpt>
      <trkpt lat="40.945095" lon="-2.433755">
        <ele>1096.491</ele>
        <time>1970-01-11T02:51:20Z</time>
      </trkpt>
      <trkpt lat="40.944874" lon="-2.433777">
        <ele>1097.099</ele>
        <time>1970-01-11T02:51:20Z</time>
      </trkpt>
      <trkpt lat="40.94426" lon="-2.433469"/>
      <trkpt lat="40.943593" lon="-2.432806">
        <ele>1093.669</ele>
        <time>1970-01-11T02:51:20Z</time>
      </trkpt>
      <trkpt lat="40.942791" lon="-2.430762">
        <ele>1080.897</ele>
        <time>1970-01-11T02:51:20Z</time>
      </trkpt>
      <trkpt lat="40.94285" lon="-2.429325"/>
      <trkpt lat="40.944138" lon="-2.426192">
        <ele>1064.415</ele>
        <time>1970-01-11T02:51:20Z</time>
      </trkpt>
      <trkpt lat="40.944873" lon="-2.42167"/>
      <trkpt lat="40.94517" lon="-2.421556"/>
      <trkpt lat="40.946641" lon="-2.421811">
        <ele>1063.840</ele>
        <time>1970-01-11T02:51:20Z</time>
      </trkpt>
      <trkpt lat="40.948975" lon="-2.421124">
        <ele>1055.457</ele>
        <time>1970-01-11T02:51:20Z</time>
      </trkpt>
      <trkpt lat="40.949756" lon="-2.420036">
        <ele>1054.428</ele>
        <time>1970-01-11T02:51:20Z</time>
      </trkpt>
      <trkpt lat="40.950397" lon="-2.418446">
        <ele>1058.085</ele>
        <time>1970-01-11T02:51:20Z</time>
      </trkpt>
      <trkpt lat="40.95099" lon="-2.417647"/>
      <trkpt lat="40.950969" lon="-2.417104">
        <ele>1062.226</ele>
        <time>1970-01-11T02:51:20Z</time>
      </trkpt>
      <trkpt lat="40.952093" lon="-2.416343">
        <ele>1070.213</ele>
        <time>1970-01-11T02:51:20Z</time>
      </trkpt>
      <trkpt lat="40.95218" lon="-2.415827"/>
      <trkpt lat="40.952701" lon="-2.415359">
        <ele>1065.289</ele>
        <time>1970-01-11T02:51:20Z</time>
      </trkpt>
      <trkpt lat="40.953473" lon="-2.413917">
        <ele>1056.606</ele>
        <time>1970-01-11T02:51:20Z</time>
      </trkpt>
      <trkpt lat="40.954372" lon="-2.413003">
        <ele>1053.226</ele>
        <time>1970-01-11T02:51:20Z</time>
      </trkpt>
      <trkpt lat="40.956041" lon="-2.412391">
        <ele>1050.808</ele>
        <time>1970-01-11T02:51:20Z</time>
      </trkpt>
      <trkpt lat="40.956391" lon="-2.412027">
        <ele>1049.859</ele>
        <time>1970-01-11T02:51:20Z</time>
      </trkpt>
      <trkpt lat="40.956467" lon="-2.411571">
        <ele>1049.276</ele>
        <time>1970-01-11T02:51:20Z</time>
      </trkpt>
      <trkpt lat="40.956661" lon="-2.411353">
        <ele>1048.037</ele>
        <time>1970-01-11T02:51:20Z</time>
      </trkpt>
      <trkpt lat="40.95864" lon="-2.411362"/>
      <trkpt lat="40.958684" lon="-2.411492">
        <ele>1051.492</ele>
        <time>1970-01-11T02:51:20Z</time>
      </trkpt>
      <trkpt lat="40.958599" lon="-2.411316">
        <ele>1049.655</ele>
        <time>1970-01-11T02:51:20Z</time>
      </trkpt>
      <trkpt lat="40.958734" lon="-2.411415">
        <ele>1051.052</ele>
        <time>1970-01-11T02:51:20Z</time>
      </trkpt>
      <trkpt lat="40.960581" lon="-2.415118">
        <ele>1060.880</ele>
        <time>1970-01-11T02:51:20Z</time>
      </trkpt>
      <trkpt lat="40.963756" lon="-2.418446">
        <ele>1075.653</ele>
        <time>1970-01-11T02:51:20Z</time>
      </trkpt>
      <trkpt lat="40.963951" lon="-2.419151">
        <ele>1074.404</ele>
        <time>1970-01-11T02:51:20Z</time>
      </trkpt>
      <trkpt lat="40.963923" lon="-2.420513">
        <ele>1070.814</ele>
        <time>1970-01-11T02:51:21Z</time>
      </trkpt>
      <trkpt lat="40.964171" lon="-2.420992">
        <ele>1069.408</ele>
        <time>1970-01-11T02:51:21Z</time>
      </trkpt>
      <trkpt lat="40.964635" lon="-2.421094">
        <ele>1067.666</ele>
        <time>1970-01-11T02:51:21Z</time>
      </trkpt>
      <trkpt lat="40.965622" lon="-2.420919">
        <ele>1065.423</ele>
        <time>1970-01-11T02:51:21Z</time>
      </trkpt>
      <trkpt lat="40.967622" lon="-2.420007">
        <ele>1074.014</ele>
        <time>1970-01-11T02:51:21Z</time>
      </trkpt>
      <trkpt lat="40.968028" lon="-2.420237">
        <ele>1075.691</ele>
        <time>1970-01-11T02:51:21Z</time>
      </trkpt>
      <trkpt lat="40.967607" lon="-2.419954">
        <ele>1074.259</ele>
        <time>1970-01-11T02:51:21Z</time>
      </trkpt>
      <trkpt lat="40.968044" lon="-2.419432">
        <ele>1073.432</ele>
        <time>1970-01-11T02:51:21Z</time>
      </trkpt>
      <trkpt lat="40.968253" lon="-2.4186"/>
      <trkpt lat="40.968267" lon="-2.417154">
        <ele>1078.487</ele>
        <time>1970-01-11T02:51:21Z</time>
      </trkpt>
      <trkpt lat="40.967928" lon="-2.414618">
        <ele>1084.299</ele>
        <time>1970-01-11T02:51:21Z</time>
      </trkpt>
      <trkpt lat="40.967984" lon="-2.413394">
        <ele>1084.207</ele>
        <time>1970-01-11T02:51:21Z</time>
      </trkpt>
      <trkpt lat="40.968934" lon="-2.411438">
        <ele>1089.227</ele>
        <time>1970-01-11T02:51:21Z</time>
      </trkpt>
      <trkpt lat="40.969777" lon="-2.411109">
        <ele>1083.208</ele>
        <time>1970-01-11T02:51:21Z</time>
      </trkpt>
      <trkpt lat="40.970644" lon="-2.410081">
        <ele>1085.090</ele>
        <time>1970-01-11T02:51:21Z</time>
      </trkpt>
      <trkpt lat="40.971007" lon="-2.408692">
        <ele>1088.657</ele>
        <time>1970-01-11T02:51:21Z</time>
      </trkpt>
      <trkpt lat="40.971222" lon="-2.408379">
        <ele>1088.258</ele>
        <time>1970-01-11T02:51:21Z</time>
      </trkpt>
      <trkpt lat="40.971712" lon="-2.407986">
        <ele>1090.455</ele>
        <time>1970-01-11T02:51:21Z</time>
      </trkpt>
      <trkpt lat="40.974396" lon="-2.407218">
        <ele>1112.013</ele>
        <time>1970-01-11T02:51:21Z</time>
      </trkpt>
      <trkpt lat="40.975614" lon="-2.406423">
        <ele>1117.876</ele>
        <time>1970-01-11T02:51:21Z</time>
      </trkpt>
      <trkpt lat="40.976911" lon="-2.405842">
        <ele>1122.693</ele>
        <time>1970-01-11T02:51:21Z</time>
      </trkpt>
      <trkpt lat="40.976949" lon="-2.405822">
        <ele>1123.613</ele>
        <time>1970-01-11T02:51:21Z</time>
      </trkpt>
      <trkpt lat="40.977082" lon="-2.40515"/>
      <trkpt lat="40.976677" lon="-2.402651">
        <ele>1123.438</ele>
        <time>1970-01-11T02:51:21Z</time>
      </trkpt>
      <trkpt lat="40.976688" lon="-2.400575">
        <ele>1127.291</ele>
        <time>1970-01-11T02:51:21Z</time>
      </trkpt>
      <trkpt lat="40.977161" lon="-2.399172">
        <ele>1129.648</ele>
        <time>1970-01-11T02:51:21Z</time>
      </trkpt>
      <trkpt lat="40.976852" lon="-2.398341">
        <ele>1129.866</ele>
        <time>1970-01-11T02:51:21Z</time>
      </trkpt>
      <trkpt lat="40.976891" lon="-2.396929">
        <ele>1130.423</ele>
        <time>1970-01-11T02:51:21Z</time>
      </trkpt>
      <trkpt lat="40.976641" lon="-2.396101">
        <ele>1131.883</ele>
        <time>1970-01-11T02:51:21Z</time>
      </trkpt>
      <trkpt lat="40.976711" lon="-2.393333">
        <ele>1139.211</ele>
        <time>1970-01-11T02:51:21Z</time>
      </trkpt>
      <trkpt lat="40.976231" lon="-2.391713">
        <ele>1138.208</ele>
        <time>1970-01-11T02:51:21Z</time>
      </trkpt>
      <trkpt lat="40.976093" lon="-2.390477">
        <ele>1140.483</ele>
        <time>1970-01-11T02:51:21Z</time>
      </trkpt>
      <trkpt lat="40.975701" lon="-2.38934"/>
      <trkpt lat="40.975435" lon="-2.387061">
        <ele>1141.221</ele>
        <time>1970-01-11T02:51:21Z</time>
      </trkpt>
      <trkpt lat="40.974878" lon="-2.384557">
        <ele>1145.468</ele>
        <time>1970-01-11T02:51:22Z</time>
      </trkpt>
      <trkpt lat="40.973879" lon="-2.383634">
        <ele>1144.826</ele>
        <time>1970-01-11T02:51:22Z</time>
      </trkpt>
      <trkpt lat="40.973151" lon="-2.382303">
        <ele>1143.469</ele>
        <time>1970-01-11T02:51:22Z</time>
      </trkpt>
      <trkpt lat="40.973439" lon="-2.381919">
        <ele>1144.026</ele>
        <time>1970-01-11T02:51:22Z</time>
      </trkpt>
      <trkpt lat="40.974382" lon="-2.381527">
        <ele>1139.464</ele>
        <time>1970-01-11T02:51:22Z</time>
      </trkpt>
      <trkpt lat="40.974837" lon="-2.381138">
        <ele>1137.094</ele>
        <time>1970-01-11T02:51:22Z</time>
      </trkpt>
      <trkpt lat="40.974997" lon="-2.380745">
        <ele>1138.257</ele>
        <time>1970-01-11T02:51:22Z</time>
      </trkpt>
      <trkpt lat="40.975185" lon="-2.378531">
        <ele>1137.422</ele>
        <time>1970-01-11T02:51:22Z</time>
      </trkpt>
      <trkpt lat="40.975579" lon="-2.377322">
        <ele>1137.008</ele>
        <time>1970-01-11T02:51:22Z</time>
      </trkpt>
      <trkpt lat="40.976344" lon="-2.376099">
        <ele>1133.680</ele>
        <time>1970-01-11T02:51:22Z</time>
      </trkpt>
      <trkpt lat="40.976974" lon="-2.375845">
        <ele>1132.847</ele>
        <time>1970-01-11T02:51:22Z</time>
      </trkpt>
      <trkpt lat="40.977326" lon="-2.375398">
        <ele>1131.668</ele>
        <time>1970-01-11T02:51:22Z</time>
      </trkpt>
      <trkpt lat="40.977444" lon="-2.375447">
        <ele>1132.471</ele>
        <time>1970-01-11T02:51:22Z</time>
      </trkpt>
      <trkpt lat="40.978395" lon="-2.375747">
        <ele>1130.699</ele>
        <time>1970-01-11T02:51:22Z</time>
      </trkpt>
      <trkpt lat="40.978906" lon="-2.375023">
        <ele>1129.639</ele>
        <time>1970-01-11T02:51:22Z</time>
      </trkpt>
      <trkpt lat="40.980021" lon="-2.375239">
        <ele>1129.217</ele>
        <time>1970-01-11T02:51:22Z</time>
      </trkpt>
      <trkpt lat="40.98096" lon="-2.376046"/>
      <trkpt lat="40.982491" lon="-2.376567">
        <ele>1131.681</ele>
        <time>1970-01-11T02:51:22Z</time>
      </trkpt>
      <trkpt lat="40.984058" lon="-2.376489">
        <ele>1136.619</ele>
        <time>1970-01-11T02:51:22Z</time>
      </trkpt>
      <trkpt lat="40.98482" lon="-2.376701"/>
      <trkpt lat="40.985555" lon="-2.376321">
        <ele>1133.820</ele>
        <time>1970-01-11T02:51:22Z</time>
      </trkpt>
      <trkpt lat="40.98666" lon="-2.375213"/>
      <trkpt lat="40.987439" lon="-2.374077">
        <ele>1133.218</ele>
        <time>1970-01-11T02:51:22Z</time>
      </trkpt>
      <trkpt lat="40.987731" lon="-2.372926">
        <ele>1136.035</ele>
        <time>1970-01-11T02:51:22Z</time>
      </trkpt>
      <trkpt lat="40.988088" lon="-2.372228">
        <ele>1138.233</ele>
        <time>1970-01-11T02:51:22Z</time>
      </trkpt>
      <trkpt lat="40.989063" lon="-2.371721">
        <ele>1145.826</ele>
        <time>1970-01-11T02:51:22Z</time>
      </trkpt>
      <trkpt lat="40.990103" lon="-2.370322">
        <ele>1138.473</ele>
        <time>1970-01-11T02:51:22Z</time>
      </trkpt>
      <trkpt lat="40.991042" lon="-2.369699">
        <ele>1168.007</ele>
      </trkpt>
      <trkpt lat="40.989552" lon="-2.367468">
        <ele>1174.018</ele>
      </trkpt>
      <trkpt lat="40.985989" lon="-2.365751">
        <ele>1183.017</ele>
      </trkpt>
      <trkpt lat="40.984812" lon="-2.364886"/>
      <trkpt lat="40.98398" lon="-2.363691"/>
      <trkpt lat="40.982749" lon="-2.361717">
        <ele>1167.060</ele>
      </trkpt>
      <trkpt lat="40.981324" lon="-2.359056">
        <ele>1170.067</ele>
      </trkpt>
      <trkpt lat="40.980611" lon="-2.357683">
        <ele>1173.088</ele>
      </trkpt>
      <trkpt lat="40.981648" lon="-2.355881">
        <ele>1173.017</ele>
      </trkpt>
      <trkpt lat="40.98249" lon="-2.353992"/>
      <trkpt lat="40.984239" lon="-2.352104">
        <ele>1197.095</ele>
      </trkpt>
      <trkpt lat="40.98573" lon="-2.350044"/>
      <trkpt lat="40.985989" lon="-2.348328">
        <ele>1217.007</ele>
      </trkpt>
      <trkpt lat="40.986377" lon="-2.346783">
        <ele>1225.020</ele>
      </trkpt>
      <trkpt lat="40.985665" lon="-2.346697">
        <ele>1211.073</ele>
      </trkpt>
      <trkpt lat="40.984239" lon="-2.346611">
        <ele>1224.092</ele>
      </trkpt>
      <trkpt lat="40.983138" lon="-2.34601"/>
      <trkpt lat="40.981" lon="-2.344723"/>
      <trkpt lat="40.978861" lon="-2.343178">
        <ele>1224.084</ele>
      </trkpt>
      <trkpt lat="40.977501" lon="-2.341547">
        <ele>1225.083</ele>
      </trkpt>
      <trkpt lat="40.97763" lon="-2.339573"/>
      <trkpt lat="40.978019" lon="-2.338543">
        <ele>1236.011</ele>
      </trkpt>
      <trkpt lat="40.97938" lon="-2.336311"/>
      <trkpt lat="40.980611" lon="-2.334681">
        <ele>1265.007</ele>
      </trkpt>
      <trkpt lat="40.981972" lon="-2.334251">
        <ele>1273.011</ele>
      </trkpt>
      <trkpt lat="40.983203" lon="-2.332878">
        <ele>1247.001</ele>
      </trkpt>
      <trkpt lat="40.983397" lon="-2.331419">
        <ele>1223.051</ele>
      </trkpt>
      <trkpt lat="40.984369" lon="-2.330389">
        <ele>1212.097</ele>
      </trkpt>
      <trkpt lat="40.985211" lon="-2.328415">
        <ele>1209.044</ele>
      </trkpt>
      <trkpt lat="40.986183" lon="-2.326956">
        <ele>1194.045</ele>
      </trkpt>
      <trkpt lat="40.986961" lon="-2.324896">
        <ele>1182.014</ele>
      </trkpt>
      <trkpt lat="40.987997" lon="-2.322321">
        <ele>1186.030</ele>
      </trkpt>
      <trkpt lat="40.988256" lon="-2.320862">
        <ele>1179.082</ele>
      </trkpt>
      <trkpt lat="40.988775" lon="-2.318716">
        <ele>1169.093</ele>
      </trkpt>
      <trkpt lat="40.988516" lon="-2.315969">
        <ele>1153.007</ele>
      </trkpt>
      <trkpt lat="40.987608" lon="-2.31288"/>
      <trkpt lat="40.986507" lon="-2.310305">
        <ele>1159.021</ele>
      </trkpt>
      <trkpt lat="40.985535" lon="-2.307386">
        <ele>1143.061</ele>
      </trkpt>
      <trkpt lat="40.985146" lon="-2.305412">
        <ele>1139.099</ele>
      </trkpt>
      <trkpt lat="40.984563" lon="-2.303095">
        <ele>1126.086</ele>
      </trkpt>
      <trkpt lat="40.984693" lon="-2.301378">
        <ele>1145.067</ele>
      </trkpt>
      <trkpt lat="40.984175" lon="-2.301378">
        <ele>1145.056</ele>
      </trkpt>
      <trkpt lat="40.983786" lon="-2.300091">
        <ele>1136.092</ele>
      </trkpt>
      <trkpt lat="40.983786" lon="-2.300091">
        <ele>1136.092</ele>
      </trkpt>
      <trkpt lat="40.983332" lon="-2.298975">
        <ele>1097.025</ele>
      </trkpt>
      <trkpt lat="40.983591" lon="-2.298031">
        <ele>1100.007</ele>
      </trkpt>
      <trkpt lat="40.983915" lon="-2.296915">
        <ele>1124.026</ele>
      </trkpt>
      <trkpt lat="40.983008" lon="-2.295198">
        <ele>1103.024</ele>
      </trkpt>
      <trkpt lat="40.981648" lon="-2.295198">
        <ele>1106.088</ele>
      </trkpt>
      <trkpt lat="40.98074" lon="-2.294598"/>
      <trkpt lat="40.98074" lon="-2.292967"/>
      <trkpt lat="40.980222" lon="-2.291164">
        <ele>1084.080</ele>
      </trkpt>
      <trkpt lat="40.979509" lon="-2.29022"/>
      <trkpt lat="40.978797" lon="-2.289019">
        <ele>1070.075</ele>
      </trkpt>
      <trkpt lat="40.978926" lon="-2.288504">
        <ele>1070.067</ele>
      </trkpt>
      <trkpt lat="40.978926" lon="-2.287045">
        <ele>1093.028</ele>
      </trkpt>
      <trkpt lat="40.979704" lon="-2.286186">
        <ele>1078.007</ele>
      </trkpt>
      <trkpt lat="40.980416" lon="-2.286358">
        <ele>1096.009</ele>
      </trkpt>
      <trkpt lat="40.981453" lon="-2.285929">
        <ele>1116.054</ele>
      </trkpt>
      <trkpt lat="40.982555" lon="-2.285929">
        <ele>1154.014</ele>
      </trkpt>
      <trkpt lat="40.983203" lon="-2.286787">
        <ele>1171.078</ele>
      </trkpt>
      <trkpt lat="40.98547" lon="-2.288332"/>
      <trkpt lat="40.986183" lon="-2.28816"/>
      <trkpt lat="40.986896" lon="-2.288847">
        <ele>1215.045</ele>
      </trkpt>
      <trkpt lat="40.987997" lon="-2.289104">
        <ele>1221.011</ele>
      </trkpt>
      <trkpt lat="40.989617" lon="-2.291336">
        <ele>1219.023</ele>
      </trkpt>
      <trkpt lat="40.989617" lon="-2.291336">
        <ele>1219.023</ele>
      </trkpt>
      <trkpt lat="40.990913" lon="-2.292109">
        <ele>1219.007</ele>
      </trkpt>
      <trkpt lat="40.991366" lon="-2.292538">
        <ele>1230.015</ele>
      </trkpt>
      <trkpt lat="40.991431" lon="-2.29125"/>
      <trkpt lat="40.992727" lon="-2.290478">
        <ele>1200.071</ele>
      </trkpt>
      <trkpt lat="40.993374" lon="-2.289019">
        <ele>1215.045</ele>
      </trkpt>
      <trkpt lat="40.994541" lon="-2.2861"/>
      <trkpt lat="40.995836" lon="-2.28404"/>
      <trkpt lat="40.996225" lon="-2.283955">
        <ele>1213.032</ele>
      </trkpt>
      <trkpt lat="40.996873" lon="-2.283955">
        <ele>1217.038</ele>
      </trkpt>
      <trkpt lat="40.997391" lon="-2.283955">
        <ele>1217.080</ele>
      </trkpt>
      <trkpt lat="40.99765" lon="-2.282667"/>
      <trkpt lat="40.998039" lon="-2.281723">
        <ele>1223.007</ele>
      </trkpt>
      <trkpt lat="40.996419" lon="-2.277689">
        <ele>1239.014</ele>
      </trkpt>
      <trkpt lat="40.997197" lon="-2.276917">
        <ele>1245.022</ele>
      </trkpt>
      <trkpt lat="40.997326" lon="-2.276144">
        <ele>1236.042</ele>
      </trkpt>
      <trkpt lat="40.997326" lon="-2.275286">
        <ele>1234.060</ele>
      </trkpt>
      <trkpt lat="40.99616" lon="-2.274599"/>
      <trkpt lat="40.995836" lon="-2.273483">
        <ele>1230.088</ele>
      </trkpt>
      <trkpt lat="40.995124" lon="-2.272711">
        <ele>1231.017</ele>
      </trkpt>
      <trkpt lat="40.995124" lon="-2.271681">
        <ele>1246.043</ele>
      </trkpt>
      <trkpt lat="40.995318" lon="-2.270479">
        <ele>1254.085</ele>
      </trkpt>
      <trkpt lat="40.995771" lon="-2.269278">
        <ele>1252.036</ele>
      </trkpt>
      <trkpt lat="40.994929" lon="-2.267818">
        <ele>1243.007</ele>
      </trkpt>
      <trkpt lat="40.995124" lon="-2.26696"/>
      <trkpt lat="40.995318" lon="-2.26696"/>
      <trkpt lat="40.995707" lon="-2.266102">
        <ele>1263.094</ele>
      </trkpt>
      <trkpt lat="40.995771" lon="-2.265158">
        <ele>1255.032</ele>
      </trkpt>
      <trkpt lat="40.995188" lon="-2.263956">
        <ele>1267.079</ele>
      </trkpt>
      <trkpt lat="40.995707" lon="-2.263613">
        <ele>1267.090</ele>
      </trkpt>
      <trkpt lat="40.996225" lon="-2.263699">
        <ele>1279.069</ele>
      </trkpt>
      <trkpt lat="40.99778" lon="-2.265244"/>
      <trkpt lat="40.998687" lon="-2.265673">
        <ele>1321.057</ele>
      </trkpt>
      <trkpt lat="41.000241" lon="-2.265673">
        <ele>1341.058</ele>
      </trkpt>
      <trkpt lat="41.0005" lon="-2.267389"/>
      <trkpt lat="41.001278" lon="-2.267733">
        <ele>1353.013</ele>
      </trkpt>
      <trkpt lat="41.002508" lon="-2.268848">
        <ele>1357.076</ele>
      </trkpt>
      <trkpt lat="41.003739" lon="-2.269707">
        <ele>1356.016</ele>
      </trkpt>
      <trkpt lat="41.00484" lon="-2.268505"/>
      <trkpt lat="41.006265" lon="-2.267561">
        <ele>1320.037</ele>
      </trkpt>
      <trkpt lat="41.007625" lon="-2.267303">
        <ele>1331.028</ele>
      </trkpt>
      <trkpt lat="41.009309" lon="-2.269192">
        <ele>1332.057</ele>
      </trkpt>
      <trkpt lat="41.011188" lon="-2.270393">
        <ele>1337.093</ele>
      </trkpt>
      <trkpt lat="41.012807" lon="-2.271166">
        <ele>1350.025</ele>
      </trkpt>
      <trkpt lat="41.012483" lon="-2.272797">
        <ele>1335.096</ele>
      </trkpt>
      <trkpt lat="41.012807" lon="-2.273226">
        <ele>1337.007</ele>
      </trkpt>
      <trkpt lat="41.013519" lon="-2.275028">
        <ele>1328.024</ele>
      </trkpt>
      <trkpt lat="41.014167" lon="-2.276144">
        <ele>1325.031</ele>
      </trkpt>
      <trkpt lat="41.015721" lon="-2.27829"/>
      <trkpt lat="41.017211" lon="-2.280693">
        <ele>1315.080</ele>
      </trkpt>
      <trkpt lat="41.01747" lon="-2.281895"/>
      <trkpt lat="41.018052" lon="-2.283869">
        <ele>1291.058</ele>
      </trkpt>
      <trkpt lat="41.018441" lon="-2.286015">
        <ele>1274.017</ele>
      </trkpt>
      <trkpt lat="41.018052" lon="-2.287645">
        <ele>1268.013</ele>
      </trkpt>
      <trkpt lat="41.018052" lon="-2.288589">
        <ele>1270.015</ele>
      </trkpt>
      <trkpt lat="41.019477" lon="-2.289877">
        <ele>1250.096</ele>
      </trkpt>
      <trkpt lat="41.019801" lon="-2.291851">
        <ele>1250.007</ele>
      </trkpt>
      <trkpt lat="41.021355" lon="-2.29228"/>
      <trkpt lat="41.022585" lon="-2.292795">
        <ele>1216.023</ele>
      </trkpt>
      <trkpt lat="41.023816" lon="-2.292795">
        <ele>1203.097</ele>
      </trkpt>
      <trkpt lat="41.024658" lon="-2.291594">
        <ele>1193.097</ele>
      </trkpt>
      <trkpt lat="41.024658" lon="-2.291594">
        <ele>1193.097</ele>
      </trkpt>
      <trkpt lat="41.024917" lon="-2.29125"/>
      <trkpt lat="41.024917" lon="-2.293825">
        <ele>1190.014</ele>
      </trkpt>
      <trkpt lat="41.026859" lon="-2.294083">
        <ele>1165.010</ele>
      </trkpt>
      <trkpt lat="41.026924" lon="-2.295799">
        <ele>1166.012</ele>
      </trkpt>
      <trkpt lat="41.027895" lon="-2.300692">
        <ele>1160.083</ele>
      </trkpt>
      <trkpt lat="41.028543" lon="-2.304811">
        <ele>1168.007</ele>
      </trkpt>
      <trkpt lat="41.029579" lon="-2.308073">
        <ele>1161.021</ele>
      </trkpt>
      <trkpt lat="41.030809" lon="-2.310047">
        <ele>1157.029</ele>
      </trkpt>
      <trkpt lat="41.03178" lon="-2.312107"/>
      <trkpt lat="41.032492" lon="-2.315369">
        <ele>1163.029</ele>
      </trkpt>
      <trkpt lat="41.033463" lon="-2.31863"/>
      <trkpt lat="41.034888" lon="-2.321978">
        <ele>1151.097</ele>
      </trkpt>
      <trkpt lat="41.036053" lon="-2.322493">
        <ele>1163.096</ele>
      </trkpt>
      <trkpt lat="41.037542" lon="-2.322493">
        <ele>1158.092</ele>
      </trkpt>
      <trkpt lat="41.038578" lon="-2.322836">
        <ele>1151.094</ele>
      </trkpt>
      <trkpt lat="41.038966" lon="-2.323437">
        <ele>1150.025</ele>
      </trkpt>
      <trkpt lat="41.038578" lon="-2.32481"/>
      <trkpt lat="41.039355" lon="-2.325668">
        <ele>1154.026</ele>
      </trkpt>
      <trkpt lat="41.040585" lon="-2.326355">
        <ele>1158.042</ele>
      </trkpt>
      <trkpt lat="41.039938" lon="-2.327042">
        <ele>1155.087</ele>
      </trkpt>
      <trkpt lat="41.038319" lon="-2.327557">
        <ele>1170.075</ele>
      </trkpt>
      <trkpt lat="41.038772" lon="-2.328587">
        <ele>1167.092</ele>
      </trkpt>
      <trkpt lat="41.039679" lon="-2.3279"/>
      <trkpt lat="41.040326" lon="-2.3279"/>
      <trkpt lat="41.040326" lon="-2.329102">
        <ele>1154.048</ele>
      </trkpt>
      <trkpt lat="41.039161" lon="-2.330904">
        <ele>1197.080</ele>
      </trkpt>
      <trkpt lat="41.039743" lon="-2.331676">
        <ele>1189.021</ele>
      </trkpt>
      <trkpt lat="41.040196" lon="-2.332363">
        <ele>1171.007</ele>
      </trkpt>
      <trkpt lat="41.039873" lon="-2.333136">
        <ele>1196.022</ele>
      </trkpt>
      <trkpt lat="41.039873" lon="-2.333136">
        <ele>1196.022</ele>
      </trkpt>
      <trkpt lat="41.040391" lon="-2.334166">
        <ele>1172.049</ele>
      </trkpt>
      <trkpt lat="41.041038" lon="-2.334852">
        <ele>1160.093</ele>
      </trkpt>
      <trkpt lat="41.041232" lon="-2.335625">
        <ele>1164.070</ele>
      </trkpt>
      <trkpt lat="41.041685" lon="-2.336655">
        <ele>1148.061</ele>
      </trkpt>
      <trkpt lat="41.042333" lon="-2.336912">
        <ele>1169.020</ele>
      </trkpt>
      <trkpt lat="41.043174" lon="-2.336912">
        <ele>1163.076</ele>
      </trkpt>
      <trkpt lat="41.044081" lon="-2.335453">
        <ele>1152.088</ele>
      </trkpt>
      <trkpt lat="41.044663" lon="-2.334852">
        <ele>1148.099</ele>
      </trkpt>
      <trkpt lat="41.045181" lon="-2.335625">
        <ele>1155.007</ele>
      </trkpt>
      <trkpt lat="41.044534" lon="-2.336397">
        <ele>1149.011</ele>
      </trkpt>
      <trkpt lat="41.044469" lon="-2.33717"/>
      <trkpt lat="41.044793" lon="-2.338114">
        <ele>1145.026</ele>
      </trkpt>
      <trkpt lat="41.046087" lon="-2.339058">
        <ele>1144.015</ele>
      </trkpt>
      <trkpt lat="41.046282" lon="-2.33983"/>
      <trkpt lat="41.045375" lon="-2.341375">
        <ele>1148.063</ele>
      </trkpt>
      <trkpt lat="41.045375" lon="-2.341375">
        <ele>1148.063</ele>
      </trkpt>
      <trkpt lat="41.044469" lon="-2.34292"/>
      <trkpt lat="41.044275" lon="-2.34292"/>
      <trkpt lat="41.043757" lon="-2.34292"/>
      <trkpt lat="41.042915" lon="-2.343435">
        <ele>1145.007</ele>
      </trkpt>
      <trkpt lat="41.042398" lon="-2.34498"/>
      <trkpt lat="41.042398" lon="-2.34601"/>
      <trkpt lat="41.041491" lon="-2.346869">
        <ele>1144.047</ele>
      </trkpt>
      <trkpt lat="41.040714" lon="-2.347898">
        <ele>1164.026</ele>
      </trkpt>
      <trkpt lat="41.041103" lon="-2.349358">
        <ele>1139.093</ele>
      </trkpt>
      <trkpt lat="41.040261" lon="-2.35013"/>
      <trkpt lat="41.040326" lon="-2.353992">
        <ele>1152.033</ele>
      </trkpt>
      <trkpt lat="41.040326" lon="-2.35734"/>
      <trkpt lat="41.039484" lon="-2.358198">
        <ele>1134.031</ele>
      </trkpt>
      <trkpt lat="41.038837" lon="-2.357426">
        <ele>1132.032</ele>
      </trkpt>
      <trkpt lat="41.03806" lon="-2.355537"/>
      <trkpt lat="41.037413" lon="-2.355194">
        <ele>1130.011</ele>
      </trkpt>
      <trkpt lat="41.036247" lon="-2.355108">
        <ele>1130.001</ele>
      </trkpt>
      <trkpt lat="41.03547" lon="-2.353821"/>
      <trkpt lat="41.034694" lon="-2.353907">
        <ele>1132.062</ele>
      </trkpt>
      <trkpt lat="41.033593" lon="-2.355366">
        <ele>1159.069</ele>
      </trkpt>
      <trkpt lat="41.034176" lon="-2.356911">
        <ele>1136.010</ele>
      </trkpt>
      <trkpt lat="41.034499" lon="-2.358112">
        <ele>1150.099</ele>
      </trkpt>
      <trkpt lat="41.034499" lon="-2.3594"/>
      <trkpt lat="41.03301" lon="-2.362919"/>
      <trkpt lat="41.032039" lon="-2.363434">
        <ele>1122.068</ele>
      </trkpt>
      <trkpt lat="41.032233" lon="-2.364979">
        <ele>1120.007</ele>
      </trkpt>
      <trkpt lat="41.031068" lon="-2.367039">
        <ele>1133.003</ele>
      </trkpt>
      <trkpt lat="41.029773" lon="-2.368069">
        <ele>1112.021</ele>
      </trkpt>
    </trkseg>
  </trk>
</gpx>
